ONEWEB-0292, 49186

Orbit data source: Space-Track

ONEWEB-0292, 49186 is a payload satellite owned by One Web (NAA) (UK) in LEO that was launched on Tue, 14 Sep 2021 UTC via a SOYUZ-2-1B launch vehicle from the Tyuratam Missile And Space Complex (TTMTR). Payload-class satellites include a variety of spacecraft equipped with specific instruments for various scientific and technological missions. These include communications satellites like Starlink; space stations such as the ISS; scientific satellites like the Hubble; Earth observation satellites from companies like Planet Labs, Umbra, and HawkEye 360; GPS; miniature CubeSats for education and research; and military/defense satellites.

Loading next visibility...
Identifier
49186, 2021-083A
Orbit
LEO
Country
Flag of UKUK
Related business
Manufacturer
One Web
Mission
Operational Commercial Communications
Bus & Motor
ARROW, Unknown motor
Mass
148 kg wet, ~140 kg dry
Launch date (UTC)
2021-09-14 (4 years ago)
Launch vehicle
SOYUZ-2-1B
Launch site
Tyuratam Missile And Space Complex (TTMTR)
Object type
Payload
Rocket body
Debris
Shape & HBR
Trap Box + 2 Pan, 2.5 m
Radar Cross Section
2.032 m², Large (>1 m²)

Expand to show TLE details & history
Last TLE update: 17 hours ago

TLE from 17 hours ago
0 ONEWEB-0292
1 49186U 21083A   25250.08961532 -.00000003  00000-0 -43061-4 0  9993
2 49186  87.9021  16.5047 0001906  98.3144 261.8201 13.13470928193769
Epoch: 2025-09-07T02:09Z
TLE epoch observation values (Epoch: 2025-09-07T02:09:02.763Z)
Latitude
-0.00006°
Longitude
-2.17091°
Altitude
1,212.86 km
Speed
7.248 km/s
True Right ascension
01h 06m 01s
True Declination
0° 00' 00"
Sunlit
Object was in full shadow at epoch
Visualization orbit readout
Latitude
Unknown
Longitude
Unknown
Altitude
Unknown
Speed
Unknown
Apparent Right ascension
Unknown
Apparent Declination
Unknown
Sunlit
N/A
Visualization observer readout
Local Sidereal Time
11:42:26
Azimuth
Unknown
Elevation
Unknown
Doppler factor
Unknown
Orbital elements
Apogee altitude
1,208.323 km
Perigee altitude
1,205.431 km
Semi-major axis
7,585.014 km
Eccentricity
0.00019
Inclination
87.9021°
RAAN
16.5047°
Arg. of periapsis
98.3144°
True anomaly
261.79848°
Mean anomaly
261.8201°
Eccentric anomaly
261.80929°
Mean motion
3.28555 °/min
Orbital period
109.57 mins
BSTAR
-0.000043061
Loading maneuver chart data...
Computing Atmospheric mass density...
Loading historical data...
Loading historical data...
Loading historical data...
Loading historical data...
Loading historical data...
Loading historical data...
Loading historical data...

Documentation

Showing up to 5 results
|